TITAN 3C TRANSTAGE DEB, 59980

Orbit data source: Space-Track

TITAN 3C TRANSTAGE DEB, 59980 is space debris in GEO originally from a launch on Thu, 26 Sep 1968 UTC launched from the Air Force Eastern Test Range (AFETR). Debris objects in space refer to the collection of defunct objects orbiting the Earth. Examples of debris include non-operational satellites, rocket bodies, and fragments generated from explosions, collisions, or faulty payload assembly.

Loading next visibility...
Identifier
59980, 1968-081AN
Orbit
GEO
Country
Flag of USUS
Related business
Manufacturer
Unknown
Mission
Spacecraft
Bus & Motor
Unknown
Mass
Unknown
Launch date (UTC)
1968-09-26 (58 years ago)
Launch vehicle
Unknown
Launch site
Air Force Eastern Test Range (AFETR)
Object type
Payload
Rocket body
Debris
Shape & HBR
Unknown shape, 1.1 m
Radar Cross Section
RCS unknown

Expand to show TLE details & history
Last TLE update: 22 hours ago

TLE from 22 hours ago
0 TITAN 3C TRANSTAGE DEB
1 59980U 68081AN  26257.55194966 -.00000135  00000-0  00000+0 0  9990
2 59980   2.0287  58.3024 0026688 286.9991  73.2797  1.02254763 44438
Epoch: 2026-09-14T13:14Z
TLE epoch observation values (Epoch: 2026-09-14T13:14:48.450Z)
Latitude
-0°
Longitude
-133.36498°
Altitude
35,207.176 km
Speed
3.097 km/s
True Right ascension
03h 55m 28s
True Declination
0° 00' 00"
Sunlit
Object was in daylight at epoch
Visualization orbit readout
Latitude
Unknown
Longitude
Unknown
Altitude
Unknown
Speed
Unknown
Apparent Right ascension
Unknown
Apparent Declination
Unknown
Sunlit
N/A
Visualization observer readout
Local Sidereal Time
04:10:53
Azimuth
Unknown
Elevation
Unknown
Doppler factor
Unknown
Orbital elements
Apogee altitude
35,351.852 km
Perigee altitude
35,129.707 km
Semi-major axis
41,618.916 km
Eccentricity
0.00267
Inclination
2.0287°
RAAN
58.3024°
Arg. of periapsis
286.9991°
True anomaly
73.57287°
Mean anomaly
73.2797°
Eccentric anomaly
73.42626°
Mean motion
0.25563 °/min
Orbital period
1,408.3 mins
BSTAR
0
Loading maneuver chart data...
Computing Atmospheric mass density...

Documentation

Showing up to 5 results
|